[[{"header":{"parameterUnit":"m.s-1","parameterCategory":1,"la1":30.2991,"la2":30.254,"lo1":-89.0895,"lo2":-89.0444,"dy":0.0017,"dx":0.0017,"nx":28,"ny":28,"refTime":"2023-11-09T09:00:00:Z","depth":0,"parameterNumber":2,"parameterNumberName":"U-component_of_WINDS"},"data":[0,0,0,0,0,0,0,0,0,0,0,0,0,0,0,0,0,0,0,0,0,0,0,0,0,0,0,0,0,0,0,0,0,0,0,0,0,0,0,0,0,0,0,0,0,0,0,0,0,0,0,0,0,0,0,0,0,0,-1.0534,-1.0534,0,-1.0458,-1.0457,-1.0457,-1.042,-1.042,-1.042,-1.042,-1.034,-1.0338,-1.0335,0,0,0,0,0,0,0,0,0,0,0,0,0,-1.0647,-1.0645,-1.0535,-1.0534,-1.0533,-1.0458,-1.0457,-1.0456,-1.042,-1.042,-1.042,-1.042,-1.034,-1.0338,-1.0335,0,0,0,0,0,0,0,0,0,0,0,0,0,-1.0587,-1.0644,-1.0535,-1.0506,-1.0502,-1.0459,-1.0457,-1.0456,-1.042,-1.042,-1.042,-1.042,-1.0341,-1.0338,-1.0335,-1.0314,0,0,-1.0325,-1.0324,0,0,0,0,0,0,0,0,-1.0591,-1.0583,-1.0511,-1.0507,-1.0504,-1.0449,-1.0467,-1.0408,-1.042,-1.0451,-1.042,-1.042,-1.0376,-1.037,-1.0355,-1.031,-1.0307,-1.0325,-1.0323,-1.0321,-1.032,0,0,0,0,0,0,0,-1.0595,-1.0586,-1.0504,-1.051,-1.0505,-1.0496,-1.0487,-1.0456,-1.0414,-1.0448,-1.0445,-1.0437,-1.0374,-1.0358,-1.0353,-1.0306,-1.0325,-1.0322,-1.032,-1.0319,-1.0239,-1.0239,0,0,0,0,0,0,-1.0604,-1.059,-1.0507,-1.0502,-1.0548,-1.0494,-1.0484,-1.0466,-1.0414,-1.0406,-1.0437,-1.0436,-1.0364,-1.0357,-1.035,-1.0322,-1.0321,-1.0318,-1.0316,-1.0239,-1.0239,-1.0239,0,0,0,0,0,0,-1.0606,-1.0597,-1.051,-1.0545,-1.0533,-1.0492,-1.0472,-1.0465,-1.0449,-1.0406,-1.0398,-1.0429,-1.0364,-1.0355,-1.0323,-1.0319,-1.0317,-1.0314,-1.024,-1.0239,-1.0239,-1.0266,0,0,0,0,0,0,-1.061,-1.0598,-1.059,-1.0545,-1.0532,-1.0485,-1.0471,-1.0463,-1.0444,-1.0441,-1.0396,-1.0389,-1.0363,-1.0328,-1.032,-1.0314,-1.0311,-1.024,-1.024,-1.0239,-1.0265,-1.0267,-1.0268,0,0,0,0,0,-1.0614,-1.06,-1.059,-1.058,-1.0521,-1.0485,-1.0477,-1.0448,-1.0444,-1.0435,-1.0407,-1.039,-1.0321,-1.0325,-1.0316,-1.0309,-1.024,-1.024,-1.0239,-1.0265,-1.0266,-1.0268,0,0,0,0,0,0,-1.0644,-1.0594,-1.0582,-1.0553,-1.0524,-1.0479,-1.0467,-1.0451,-1.0421,-1.042,-1.0385,-1.0375,-1.0347,-1.0325,-1.0331,-1.0286,-1.0279,-1.0276,-1.0301,-1.0303,-1.0304,-1.0309,-1.0309,0,0,0,0,0,-1.0648,-1.0624,-1.058,-1.0559,-1.0545,-1.0509,-1.0492,-1.0472,-1.044,-1.0427,-1.0397,-1.0366,-1.0337,-1.0319,-1.0289,-1.0262,-1.0251,-1.0252,-1.0254,-1.0255,-1.0253,-1.0237,-1.0237,-1.0238,-1.0238,-1.0238,0,0,-1.0655,-1.0624,-1.061,-1.0564,-1.0539,-1.0514,-1.0498,-1.0472,-1.0453,-1.0423,-1.0392,-1.0369,-1.0331,-1.0302,-1.0288,-1.0283,-1.0251,-1.0255,-1.0256,-1.0253,-1.0237,-1.0236,-1.0236,-1.0238,-1.0238,-1.0238,0,0,-1.0654,-1.0629,-1.0608,-1.0584,-1.0546,-1.0522,-1.0518,-1.0475,-1.0459,-1.0427,-1.0404,-1.038,-1.0331,-1.0306,-1.0286,-1.0277,-1.026,-1.0268,-1.0275,-1.0259,-1.0259,-1.0259,-1.0255,-1.0254,-1.0267,-1.0267,-1.0267,0,-1.0667,-1.0629,-1.06,-1.0575,-1.0555,-1.0528,-1.0507,-1.0484,-1.0439,-1.0426,-1.0421,-1.0359,-1.0332,-1.0296,-1.0294,-1.028,-1.0273,-1.0273,-1.0262,-1.0261,-1.0261,-1.0257,-1.0255,-1.0268,-1.0268,-1.0268,-1.0268,0,-1.0647,-1.0621,-1.0609,-1.0567,-1.0545,-1.0523,-1.049,-1.0472,-1.0454,-1.0431,-1.0398,-1.0365,-1.0329,-1.0319,-1.0301,-1.0281,-1.0279,-1.0269,-1.0261,-1.0262,-1.0258,-1.0256,-1.027,-1.027,-1.0269,-1.0269,0,0,-1.0662,-1.0605,-1.0601,-1.0582,-1.0539,-1.0518,-1.0494,-1.0459,-1.0444,-1.0414,-1.0393,-1.0352,-1.0343,-1.0321,-1.03,-1.0286,-1.0281,-1.0278,-1.0276,-1.0279,-1.0256,-1.0264,-1.0262,-1.027,-1.0269,-1.0269,-1.0259,0,-1.0656,-1.0612,-1.0585,-1.0552,-1.0528,-1.0501,-1.048,-1.0452,-1.0429,-1.0404,-1.0379,-1.0351,-1.034,-1.0327,-1.0312,-1.0285,-1.0276,-1.0285,-1.0249,-1.0248,-1.0259,-1.026,-1.0268,-1.026,-1.0257,-1.0257,-1.0256,0,-1.0642,-1.0613,-1.0578,-1.0538,-1.0527,-1.0509,-1.0475,-1.0452,-1.0418,-1.0403,-1.0379,-1.0358,-1.0331,-1.0326,-1.0288,-1.0295,-1.0279,-1.0263,-1.0262,-1.0257,-1.0252,-1.0255,-1.0257,-1.0255,-1.0253,-1.0254,-1.0254,0,-1.0657,-1.0609,-1.0582,-1.0566,-1.0519,-1.0507,-1.0486,-1.0453,-1.0434,-1.0405,-1.0392,-1.0359,-1.0341,-1.0316,-1.0287,-1.0286,-1.0252,-1.0244,-1.0237,-1.0238,-1.0231,-1.0232,-1.023,-1.0221,-1.0221,-1.0221,-1.0221,0,-1.0652,-1.0631,-1.0588,-1.0572,-1.0548,-1.0517,-1.0494,-1.0471,-1.0442,-1.042,-1.0395,-1.0375,-1.0338,-1.0313,-1.0289,-1.0261,-1.0253,-1.024,-1.0234,-1.0242,-1.0243,-1.023,-1.023,-1.0221,-1.0221,-1.0221,-1.0221,0,-1.0664,-1.0634,-1.0603,-1.0561,-1.055,-1.0535,-1.0498,-1.0481,-1.0457,-1.043,-1.0421,-1.0384,-1.0353,-1.0322,-1.028,-1.0264,-1.0237,-1.0229,-1.0249,-1.0245,-1.024,-1.0241,-1.0229,-1.0226,-1.022,-1.022,-1.0221,0,-1.0662,-1.0646,-1.0603,-1.0587,-1.0567,-1.0541,-1.0522,-1.0491,-1.0472,-1.0433,-1.042,-1.0388,-1.036,-1.0312,-1.0281,-1.0249,-1.024,-1.0238,-1.0235,-1.0243,-1.0239,-1.024,-1.0238,-1.0239,-1.0239,-1.0239,-1.0239,0,-1.0663,-1.0649,-1.0623,-1.0592,-1.057,-1.0543,-1.0516,-1.0504,-1.0467,-1.0447,-1.0416,-1.0395,-1.0352,-1.032,-1.0285,-1.0263,-1.0245,-1.0241,-1.0237,-1.0245,-1.0257,-1.025,-1.0251,-1.0241,-1.0241,-1.0241,-1.0241,-1.0241,-1.0668,-1.0652,-1.062,-1.0591,-1.0567,-1.0542,-1.0524,-1.0499,-1.0472,-1.0436,-1.0419,-1.0388,-1.0355,-1.0305,-1.0284,-1.0258,-1.0253,-1.0248,-1.0247,-1.0246,-1.0248,-1.0262,-1.0252,-1.0251,-1.0251,-1.0251,-1.0251,0,-1.0667,-1.0645,-1.0619,-1.0582,-1.0559,-1.0545,-1.0514,-1.0496,-1.0469,-1.044,-1.0414,-1.0378,-1.0347,-1.0314,-1.028,-1.0267,-1.0257,-1.0259,-1.0259,-1.0254,-1.0255,-1.0261,-1.0267,-1.0267,-1.0267,-1.0267,-1.0267,-1.0267,-1.0664,-1.0637,-1.0619,-1.058,-1.0557,-1.0527,-1.0511,-1.0488,-1.0464,-1.0426,-1.04,-1.0379,-1.0348,-1.0312,-1.0283,-1.0274,-1.0263,-1.0266,-1.0255,-1.0256,-1.0254,-1.0253,-1.0259,-1.0264,-1.0264,-1.0256,-1.0256,-1.0256]},{"header":{"parameterUnit":"m.s-1","parameterCategory":1,"la1":30.2991,"la2":30.254,"lo1":-89.0895,"lo2":-89.0444,"dy":0.0017,"dx":0.0017,"nx":28,"ny":28,"refTime":"2023-11-09T09:00:00:Z","depth":0,"parameterNumber":3,"parameterNumberName":"V-component_of_WINDS"},"data":[0,0,0,0,0,0,0,0,0,0,0,0,0,0,0,0,0,0,0,0,0,0,0,0,0,0,0,0,0,0,0,0,0,0,0,0,0,0,0,0,0,0,0,0,0,0,0,0,0,0,0,0,0,0,0,0,0,0,2.2852,2.2851,0,2.279,2.2789,2.2788,2.2693,2.2691,2.2689,2.2688,2.2626,2.2625,2.2625,0,0,0,0,0,0,0,0,0,0,0,0,0,2.2892,2.2892,2.2852,2.2851,2.285,2.279,2.2789,2.2788,2.2693,2.2691,2.2689,2.2687,2.2626,2.2625,2.2625,0,0,0,0,0,0,0,0,0,0,0,0,0,2.2857,2.2891,2.2852,2.2796,2.279,2.279,2.2789,2.2788,2.2693,2.2691,2.2688,2.2686,2.2626,2.2625,2.2625,2.2676,0,0,2.2625,2.2625,0,0,0,0,0,0,0,0,2.2859,2.2855,2.2805,2.28,2.2793,2.2746,2.278,2.275,2.2694,2.273,2.2688,2.2685,2.2668,2.2664,2.2658,2.2673,2.267,2.2625,2.2625,2.2625,2.2625,0,0,0,0,0,0,0,2.2861,2.2857,2.2827,2.2804,2.2797,2.2774,2.2767,2.2774,2.2714,2.2727,2.272,2.2714,2.2664,2.2658,2.2656,2.2669,2.2625,2.2625,2.2625,2.2625,2.2725,2.2727,0,0,0,0,0,0,2.2872,2.286,2.2829,2.2825,2.282,2.2776,2.2767,2.2764,2.2714,2.2704,2.2716,2.2709,2.266,2.2656,2.2653,2.271,2.2625,2.2625,2.2625,2.2722,2.2725,2.2728,0,0,0,0,0,0,2.2873,2.287,2.2832,2.2841,2.2834,2.2778,2.2775,2.2764,2.2758,2.2705,2.2695,2.2721,2.2658,2.2654,2.2671,2.2707,2.2625,2.2625,2.2719,2.2723,2.2727,2.2824,0,0,0,0,0,0,2.2874,2.2871,2.2888,2.2842,2.2834,2.285,2.2777,2.2765,2.2758,2.2749,2.2707,2.2698,2.2655,2.2672,2.2671,2.2705,2.2625,2.2715,2.2721,2.2726,2.2817,2.2831,2.2842,0,0,0,0,0,2.2876,2.2918,2.289,2.2887,2.2855,2.2852,2.2848,2.2798,2.2761,2.2779,2.2746,2.2699,2.2703,2.2675,2.2673,2.2707,2.2713,2.2719,2.2725,2.2811,2.2828,2.2842,0,0,0,0,0,0,2.297,2.2911,2.2879,2.2907,2.2885,2.2836,2.2857,2.2816,2.2805,2.2797,2.2736,2.2728,2.2754,2.2732,2.2701,2.2755,2.2701,2.2707,2.2767,2.2783,2.2795,2.2799,2.2625,0,0,0,0,0,2.2994,2.2996,2.2944,2.2974,2.2965,2.2913,2.291,2.2874,2.2849,2.284,2.2807,2.2786,2.2783,2.2781,2.2775,2.2814,2.2804,2.2837,2.285,2.286,2.2866,2.2887,2.2901,2.2748,2.2748,2.2748,0,0,2.3043,2.3011,2.3016,2.2992,2.2971,2.2976,2.2906,2.2913,2.2916,2.2841,2.2855,2.2832,2.2804,2.2833,2.2844,2.2816,2.2907,2.2868,2.2877,2.2877,2.2895,2.2909,2.2922,2.2753,2.2752,2.2751,0,0,2.3136,2.3111,2.3134,2.3115,2.3084,2.305,2.3056,2.3013,2.2995,2.3009,2.2953,2.2956,2.2951,2.2934,2.2925,2.3014,2.2972,2.3014,2.3079,2.31,2.3113,2.3123,2.3156,2.3168,2.302,2.3021,2.3021,0,2.3201,2.3204,2.3151,2.3162,2.3154,2.3086,2.311,2.3094,2.3064,2.306,2.3029,2.3023,2.2999,2.3024,2.3046,2.3041,2.3047,2.3018,2.3115,2.3125,2.3134,2.3164,2.3177,2.3026,2.3025,2.3025,2.3024,0,2.3287,2.3291,2.3313,2.3285,2.328,2.3297,2.3248,2.3249,2.3214,2.3184,2.32,2.317,2.3157,2.3161,2.3126,2.3182,2.3166,2.3126,2.3071,2.3155,2.3183,2.3194,2.3034,2.3032,2.303,2.3029,0,0,2.3434,2.3378,2.3387,2.3375,2.3338,2.334,2.3356,2.3343,2.3346,2.3328,2.3341,2.3339,2.3303,2.3293,2.3256,2.3275,2.335,2.3233,2.3232,2.3256,2.341,2.3441,2.3455,2.3322,2.3324,2.3325,2.3413,0,2.3518,2.3541,2.3494,2.3528,2.3532,2.347,2.3484,2.3463,2.3436,2.3437,2.3407,2.3407,2.3359,2.3352,2.3368,2.3337,2.338,2.333,2.3333,2.3334,2.3342,2.3469,2.35,2.3585,2.3423,2.3425,2.3427,0,2.3619,2.3607,2.3642,2.3605,2.3605,2.3618,2.3604,2.3605,2.3581,2.3561,2.3551,2.3509,2.3523,2.3471,2.3491,2.3458,2.3457,2.3443,2.3445,2.3443,2.3385,2.3471,2.361,2.3623,2.3443,2.3442,2.344,0,2.3724,2.3716,2.3736,2.3728,2.3685,2.3696,2.3679,2.3653,2.3649,2.3638,2.3635,2.3626,2.3621,2.3615,2.3573,2.3538,2.3598,2.3542,2.3582,2.3584,2.3597,2.3596,2.3738,2.3597,2.3596,2.3596,2.3596,0,2.3823,2.3847,2.3783,2.3795,2.3821,2.3769,2.3796,2.3773,2.3751,2.3759,2.3705,2.3713,2.3656,2.366,2.3626,2.3649,2.3647,2.3631,2.3622,2.3636,2.3638,2.3634,2.3627,2.36,2.3599,2.3598,2.3598,0,2.3943,2.3901,2.3919,2.3878,2.3869,2.389,2.3855,2.3865,2.3836,2.3847,2.3846,2.38,2.3802,2.3759,2.3751,2.3729,2.3766,2.3746,2.3774,2.3768,2.381,2.3807,2.3954,2.3971,2.3819,2.3821,2.3822,0,2.4009,2.4026,2.3987,2.3989,2.3974,2.3977,2.3974,2.3924,2.3923,2.3899,2.3913,2.391,2.3904,2.391,2.3876,2.3871,2.3851,2.3903,2.385,2.3864,2.3852,2.3852,2.3854,2.3914,2.3916,2.3917,2.3919,0,2.413,2.411,2.4106,2.4097,2.4094,2.4084,2.4071,2.4076,2.4022,2.4024,2.4024,2.402,2.4013,2.4012,2.4001,2.3984,2.3943,2.3936,2.3945,2.3959,2.3975,2.3968,2.3804,2.3933,2.3931,2.393,2.3929,2.3929,2.4225,2.4238,2.4214,2.4213,2.4198,2.4187,2.4196,2.4168,2.4168,2.4158,2.4129,2.4136,2.4114,2.4095,2.4083,2.4088,2.4062,2.4075,2.4078,2.4083,2.4091,2.3975,2.4086,2.4085,2.4085,2.4084,2.4084,0,2.4344,2.4326,2.4326,2.4309,2.4309,2.4271,2.4256,2.4258,2.4264,2.4248,2.4244,2.4247,2.4245,2.4213,2.4208,2.4219,2.42,2.4219,2.4218,2.4215,2.4114,2.4106,2.4234,2.4234,2.4234,2.4234,2.4234,2.4234,2.4406,2.4427,2.4404,2.4417,2.4399,2.4404,2.4399,2.439,2.4377,2.4381,2.438,2.4359,2.4337,2.4331,2.4329,2.4319,2.432,2.4346,2.4331,2.4236,2.4222,2.4208,2.4201,2.4347,2.4347,2.4431,2.4432,2.4433]}]]